Location: Boiro
(42.6475°N, 8.8834°W)
Time: 09:05:32
(UTC+01:00)

SR - Pass Details

Date: 05 December 2021
Orbit: 583 x 872 km, 66.7° (Epoch: 16 January)

Event Time Altitude Azimuth Distance (km) Brightness Sun altitude
Rises 08:23:05 0° 339° (NNW) 2,820 ? -5.2°
Reaches altitude 10° 08:25:42 10° 355° (N) 1,931 ? -4.8°
Maximum altitude 08:29:08 23° 48° (NE) 1,318 ? -4.2°
Drops below altitude 10° 08:32:41 10° 101° (E) 2,004 ? -3.6°
Sets 08:35:26 0° 116° (ESE) 2,955 ? -3.2°
